Regional Weather Roundup
Issued by NWS

Home | Current Version | Previous Version | Text Only | Print | Product List | Glossary On
Versions: 1 2 3 4 5 6 7 8 9 10 11 12 13 14 15 16 17 18 19 20 21 22 23 24 25 26 27 28 29 30 31 32 33 34 35 36 37 38 39 40 41 42 43 44 45 46 47 48 49 50
000
ASUS43 KLOT 291708
RWRIL

ILLINOIS REGIONAL WEATHER ROUNDUP
NATIONAL WEATHER SERVICE CHICAGO/ROMEOVILLE IL
1200 PM CDT THU SEP 29 2016

NOTE: "FAIR" INDICATES FEW OR NO CLOUDS BELOW 12,000 FEET WITH NO
SIGNIFICANT WEATHER AND/OR OBSTRUCTIONS TO VISIBILITY.

* THESE STATIONS ARE NOT UNDER NWS QUALITY CONTROL. THEY ALSO MAY NOT
  REPORT WEATHER SUCH AS PRECIPITATION OR FOG.

ILZ001-002-007-009-015-016-024-291800-
NORTHWEST ILLINOIS

CITY           SKY/WX    TMP DP  RH WIND       PRES   REMARKS
MOLINE         SUNNY     69  52  54 N8        30.26F
STERLING*      PTSUNNY   69  56  62 N14       30.24F
SAVANNA*       SUNNY     68  54  61 NE14G20   30.28S
$$

ILZ003-004-008-010-011-017-018-291800-
NORTH CENTRAL ILLINOIS

CITY           SKY/WX    TMP DP  RH WIND       PRES   REMARKS
ROCKFORD       PTSUNNY   69  55  60 NE21G26   30.24F
FREEPORT*      SUNNY     65  54  66 NE15G25   30.29S
ROCHELLE*      PTSUNNY   65  56  70 N16       30.23R
DE KALB*       CLOUDY    67  58  72 NE20G31   30.22S
$$

ILZ005-006-012>014-019>023-291800-
NORTHEAST ILLINOIS

CITY           SKY/WX    TMP DP  RH WIND       PRES   REMARKS
CHICAGO-OHARE  LGT RAIN  63  58  83 NE22G30   30.18R
CHICAGO-MIDWAY LGT RAIN  65  58  78 NE17G28   30.17R FOG
AURORA         LGT RAIN  63  58  83 NE17      30.20R
LANSING*       LGT RAIN  63  61  94 NE12      30.16S
JOLIET*        DRIZZLE   65  60  84 NE12G22   30.17S
WAUKEGAN       CLOUDY    62  57  83 N14G22    30.22R
DUPAGE AIRPORT CLOUDY    63  57  81 N22G28    30.19R
KANKAKEE*      CLOUDY    63  58  82 NE12      30.16R
WHEELING       LGT RAIN  64  57  78 NE14G28   30.21R
MORRIS*        CLOUDY    63  61  91 N6        30.17R
ROMEOVILLE*    CLOUDY    64  61  90 NE16G24   30.17S
NORTHERLY ISL    N/A     62  58  86 NE15        N/A
$$

LMZ740>746-291800-
SOUTHERN LAKE MICHIGAN

STATION/POSITION SKY/WX   TEMP    WIND        PRES    VSBY  WAVE
                          AIR SEA DIR/SP/G                  HT/PER
                          (F)     (DEG/KT/KT) (MB)    (MI)  (FT/S)
SOUTHERN BUOY              64 69   50/ 21/ 27 1022.1R         7/ 6
WILMETTE HARBOR            61 53   60/ 17/ 23   N/A           8/ 8
HARRISON CRIB              63      40/ 24/ 26   N/A
BURNHAM HARBOR             62      20/ 12/ 17   N/A
CALUMET HARBOR             62      20/ 16/ 23 1021.0R
BURNS HARBOR               62      50/ 23/ 27 1021.0S
MICHIGAN CITY              61      30/ 23/ 25   N/A
MICHIGAN CITY 6N           62 65   40/ 17/ 23   N/A           8/ 7
ST. JOSEPH                 61 64   30/ 12/ 16 1021.4          5/ 7
$$

ILZ025>027-034>036-040-047-049-050-058-095>099-291800-
WEST-CENTRAL ILLINOIS

CITY           SKY/WX    TMP DP  RH WIND       PRES   REMARKS
QUINCY         SUNNY     66  52  60 N15       30.25F
GALESBURG*     SUNNY     66  53  62 N15G24    30.24F
MACOMB*        SUNNY     65  52  62 N14       30.26F
JACKSONVILLE*  CLOUDY    64  53  68 N17       30.20S
PITTSFIELD*    PTSUNNY   64  54  69 N14G20    30.25S
$$

ILZ028>032-037-038-041>044-048-051>054-059>061-291800-
CENTRAL ILLINOIS

CITY           SKY/WX    TMP DP  RH WIND       PRES   REMARKS
PONTIAC        CLOUDY    65  63  94 NE13      30.17R
BLOOMINGTON    LGT RAIN  61  58  90 N17G26    30.15R
DECATUR        LGT RAIN  60  57  89 N8        30.15S FOG
PEORIA         PTSUNNY   67  55  65 N13G22    30.19S
LACON*         CLOUDY    67  53  59 N9G20     30.18S
LINCOLN*       CLOUDY    69  60  72 N12G20    30.15F
SPRINGFIELD    CLOUDY    66  56  70 N13       30.17F
TAYLORVILLE    RAIN      57  55  94 N10       30.16R
$$

ILZ033-039-045-046-055>057-062-063-291800-
EAST-CENTRAL ILLINOIS

CITY           SKY/WX    TMP DP  RH WIND       PRES   REMARKS
CHAMPAIGN      CLOUDY    66  56  70 N7        30.14R
RANTOUL*       PTSUNNY   66  57  73 NE8       30.14R
MATTOON        PTSUNNY   64  52  64 N10G18    30.11S
PARIS*         PTSUNNY   65  54  67 NE5       30.12S
$$

ILZ079-100>102-291800-
SOUTHWEST ILLINOIS

CITY           SKY/WX    TMP DP  RH WIND       PRES   REMARKS
ALTON          CLOUDY    61  54  77 NW8G17    30.20R
BELLEVILLE     MOSUNNY   64  55  72 NW20G25   30.15F
CAHOKIA*       CLOUDY    62  53  72 N16       30.20S
SPARTA*        CLOUDY    62  54  75 NW13G24   30.18R
$$

ILZ064>066-069>071-074>076-080>082-084>086-088>090-092>094-291800-
SOUTH-CENTRAL ILLINOIS

CITY           SKY/WX    TMP DP  RH WIND       PRES   REMARKS
CARBONDALE     LGT RAIN  60  55  83 N10       30.14F
CAIRO*         CLOUDY    60  54  79 NW10      30.15S
EFFINGHAM*     PTSUNNY   68  54  59 N10G16    30.13S
MT. VERNON     CLOUDY    63  54  72 N7        30.13F
CENTRALIA*     CLOUDY    67  56  68 N9        30.13S
SALEM*         CLOUDY    64  55  70 N9        30.13S
METROPOLIS*    DRIZZLE   58  57  95 NW5       30.14S
$$

ILZ067-068-072-073-078-083-087-091-291800-
SOUTHEAST ILLINOIS

CITY           SKY/WX    TMP DP  RH WIND       PRES   REMARKS
LAWRENCEVILLE  PTSUNNY   64  53  67 N10       30.11R
FLORA*         CLOUDY    66  53  64 NE9       30.11F
FAIRFIELD*     CLOUDY    65  53  64 NE6       30.10S
HARRISBURG*    CLOUDY    63  55  77 NW7       30.12S
ROBINSON*      PTSUNNY   63  52  67 N9        30.11S
CARMI*         PTSUNNY   65  54  66 N7        30.10S
$$

ABBREVIATIONS USED IN REMARKS
   TC - TEMPERATURE IN CELSIUS
  WCI - WIND CHILL INDEX
   HX - HEAT INDEX
  VSB - VISIBILITY
$$




USA.gov is the U.S. government's official web portal to all federal, state and local government web resources and services.